Location: Unspecified
(33.9239°N, 118.0544°W)
Time: 14:30:28
(UTC-07:00)

Daily predictions for brighter satellites

Satellite Brightness Start Highest point End
(mag) Time Altitude Azimuth Time Altitude Azimuth Time Altitude Azimuth
Cosmos 1536 2.8 19:46:11 10° S 19:50:06 62° E 19:54:04 10° NNE
Meteor 1-29 3.1 19:48:04 10° N 19:51:31 80° WNW 19:54:59 10° SSW
Meteor 1-28 Rocket 4.4 19:48:03 10° N 19:51:45 49° WNW 19:55:25 10° SSW
Okean 1-7 Rocket 3.7 19:48:05 10° N 19:52:29 82° W 19:56:51 10° S
NOSS 2-1 (D) 3.3 19:49:46 10° SSW 19:53:36 88° WNW 19:57:44 10° NNE
Cosmos 1346 Rocket 4.4 19:51:32 10° NNE 19:54:10 17° ENE 19:56:48 10° ESE
NOSS 2-1 (C) 3.3 19:50:47 10° SSW 19:54:38 89° NW 19:58:46 10° NNE
GOES 2 Rocket 4.0 19:51:43 10° WSW 19:55:29 33° S 19:59:28 10° SE
Cosmos 1821 Rocket 4.1 19:49:56 10° SSE 19:55:51 53° E 20:01:44 10° NNE
Centaur D-1A AC-32 3.4 20:04:19 10° WSW 20:09:07 28° S 20:11:41 12° SE
ALOS 2.5 20:05:30 10° SSE 20:10:01 52° ENE 20:14:34 10° N
Cosmos 2227 Rocket 3.4 20:05:55 10° N 20:10:28 24° ENE 20:14:14 13° ESE
HJ-1C 4.4 20:07:23 10° S 20:10:33 48° W 20:13:44 10° NNW
NOSS 2-1 (E) 3.9 20:06:48 10° SW 20:10:37 63° WNW 20:14:49 10° NNE
Meteor 1-5 Rocket 4.1 20:07:34 10° S 20:12:44 58° E 20:18:01 10° NNE
FENGYUN 3A 3.8 20:08:25 10° SSE 20:13:38 57° ENE 20:18:52 10° N
Meteor 1-19 Rocket 4.4 20:08:20 10° N 20:14:00 81° W 20:19:34 10° S
Helios 1B rocket 4.4 20:11:59 10° N 20:15:43 34° WNW 20:19:25 10° SW
Cosmos 1777 Rocket 4.1 20:16:35 10° N 20:21:48 62° ENE 20:27:00 10° SSE
Helios 1A 4.5 20:21:52 10° SSW 20:25:45 38° W 20:29:40 10° NNW
Cosmos 2297 Rocket 3.5 20:21:51 10° N 20:26:17 23° ENE 20:28:59 17° E
H-2A R/B 4.1 20:26:32 11° ENE 20:26:50 11° ENE 20:27:53 10° NE
Cosmos 2208 Rocket 4.0 20:23:49 10° SSW 20:29:05 80° ESE 20:34:28 10° NNE
Cosmos 2123 Rocket 4.0 20:25:18 10° N 20:31:23 58° E 20:37:25 10° SSE
Cosmos 1892 Rocket 3.5 20:27:45 10° N 20:32:15 87° E 20:36:43 10° S
Okean 2 3.3 20:28:47 10° N 20:32:57 75° E 20:37:05 10° S
Cosmos 1975 3.5 20:30:59 13° SSE 20:34:08 35° E 20:37:53 10° NNE
Cosmos 1455 Rocket 2.9 20:30:05 10° S 20:34:24 85° E 20:38:45 10° N
ATLAS 3B CENTAUR R/B 1.9 20:34:29 10° SW 20:35:20 14° SSW 20:35:20 14° SSW
Cosmos 1025 Rocket 4.1 20:32:59 10° NNW 20:37:11 46° W 20:41:18 10° SSW
Cosmos 1602 Rocket 4.2 20:38:03 10° NNE 20:42:09 35° E 20:43:33 28° ESE
Meteor 2-15 4.4 20:36:29 10° N 20:42:35 89° ENE 20:48:38 10° S
Resurs 01 Rocket 4.0 20:42:21 10° SSW 20:45:55 24° W 20:49:29 10° NW
Tiangong 1 3.6 20:44:19 10° NW 20:46:30 17° N 20:48:39 10° NE
Meteor 2-15 Rocket 4.3 20:41:23 10° N 20:47:29 83° E 20:53:33 10° S
CZ-4 DEB 3.2 20:47:39 39° E 20:47:43 39° ENE 20:50:41 10° N
Lacrosse 5 rocket 3.0 20:46:08 10° N 20:48:30 16° NE 20:49:06 15° NE
Cosmos 1461 3.6 20:45:49 10° N 20:49:29 33° ENE 20:50:13 31° E
USA 186 2.1 20:47:14 17° S 20:49:34 61° W 20:52:35 10° NNW
Envisat 3.6 20:51:27 30° ESE 20:53:00 36° ENE 20:57:37 10° N
NOSS 3-4 (A) 3.8 20:46:33 10° NNW 20:53:40 72° ENE 20:58:16 25° SE
NOSS 3-4 (C) 3.8 20:46:40 10° NNW 20:53:47 71° ENE 20:58:21 26° SE
Cosmos 1153 Rocket 4.4 20:48:10 10° S 20:54:17 63° E 21:00:22 10° NNE
OTV 4 1.3 20:52:07 10° WNW 20:54:56 39° N 20:55:25 36° NE
H-2A R/B 3.8 20:54:51 10° S 20:58:31 44° W 21:02:15 10° NNW
Meteor 1-12 Rocket 4.2 20:54:17 10° S 20:59:57 86° E 21:05:46 10° N
Cosmos 1697 Rocket 2.9 20:56:48 10° S 21:02:10 46° ESE 21:07:33 10° NE
Cosmos 2278 4.3 20:56:39 10° SW 21:02:12 58° WNW 21:07:50 10° NNE
Cosmos 1939 Rocket 3.1 21:04:26 48° E 21:04:50 50° ENE 21:08:51 10° N
DELTA 2 R/B (1) 4.2 21:02:27 10° WNW 21:07:51 49° N 21:10:33 27° ENE
Delta 2 Rocket 3.8 21:04:49 10° WNW 21:10:23 89° NNE 21:11:50 48° E
Cosmos 1447 Rocket 4.4 21:06:03 10° N 21:12:22 72° E 21:15:36 31° SSE
Cosmos 220 Rocket 4.3 21:08:24 10° N 21:12:20 47° ENE 21:12:20 47° ENE
SJ-11-01 4.2 21:15:06 38° S 21:16:53 83° WSW 21:21:36 10° NNW
Iridium 4 Rocket 3.3 21:12:11 10° N 21:17:19 87° W 21:19:13 37° S
OAO 2 Rocket 3.2 21:15:42 10° WSW 21:20:46 89° S 21:21:56 55° E
Hubble Space Telescope 2.4 21:20:21 10° WSW 21:23:04 24° SSW 21:23:04 24° SSW
Cosmos 1980 Rocket 3.1 21:25:46 32° ENE 21:25:46 32° ENE 21:29:10 10° NE
Cosmos 2016 Rocket 4.2 21:28:04 46° E 21:28:04 46° E 21:33:48 10° NNE
ERS-1 Rocket 3.1 21:27:33 40° S 21:29:18 70° WSW 21:34:19 10° NNW
ARGOS 4.4 21:31:03 27° NE 21:31:03 27° NE 21:34:44 10° NNE
Cosmos 1898 Rocket 3.6 21:30:06 10° N 21:35:11 59° ENE 21:35:11 59° ENE
RESURS DK-1 4.4 21:33:29 10° N 21:35:13 19° NNE 21:35:13 19° NNE
Cosmos 2173 Rocket 3.9 21:38:27 41° S 21:40:53 86° E 21:47:17 10° N
Cosmos 1500 4.4 21:44:14 40° WNW 21:44:14 40° WNW 21:47:33 10° N
Cosmos 2061 Rocket 4.0 21:45:33 42° S 21:47:54 84° W 21:54:13 10° N
CZ-3C R/B 3.6 21:22:34 10° W 21:48:48 35° SSW 21:51:06 31° S
Cosmos 2100 Rocket 4.1 21:46:39 31° SSW 21:49:50 73° W 21:56:06 10° N
MetOp-B 4.2 21:51:33 69° NNE 21:51:33 69° NNE 21:56:25 10° N
Cosmos 2227 Rocket 3.2 21:49:21 10° NW 21:54:35 40° WSW 21:56:06 33° SW
H-2A R/B 3.4 22:03:40 35° NW 22:03:40 35° NW 22:06:22 10° NNW
SPOT 5 3.6 22:11:02 53° WNW 22:11:02 53° WNW 22:15:14 10° NNW
Cosmos 2297 Rocket 3.0 22:05:10 10° NW 22:10:26 42° WSW 22:10:49 41° WSW
Lacrosse 5 3.2 22:06:43 10° NNW 22:09:59 32° N 22:09:59 32° N
USA 215 4.0 22:16:43 40° NE 22:16:59 40° NE 22:22:58 10° NNW
Cosmos 1725 Rocket 4.5 22:26:54 54° N 22:26:54 54° N 22:31:37 10° N
Lacrosse 5 rocket 4.3 22:24:26 10° NW 22:24:50 12° NW 22:24:50 12° NW
H-2A R/B 3.9 22:31:30 23° N 22:31:30 23° N 22:33:22 10° N
Cosmos 2098 Rocket 4.4 22:36:06 65° WNW 22:36:06 65° WNW 22:42:15 10° N
Terra 4.3 22:58:02 17° N 22:58:02 17° N 22:59:09 10° N
Milstar 3 Cent rocket 3.9 22:41:13 10° W 22:55:17 54° SW 22:55:17 54° SW
Cosmos 1980 Rocket 4.2 23:07:25 23° WNW 23:07:59 23° WNW 23:12:28 10° N
